Temperature
18 18 18 18 18 18 18 18 18 18 18 18 18 18 18 18 18 18 18 18 18 18 18 18 18 18 18 17 17 17 17 17 17 17 17 17 17 17 17 17 16 16 16
18 18 18 18 18 18 18 18 18 18 18 18 18 18 18 18 18 17 18 18 18 18 18 18 18 18 18 17 17 17 17 17 17 17 17 17 17 17 17 17 16 16 16
18 18 18 18 18 18 18 18 18 18 18 18 18 18 18 18 18 17 18 18 18 18 18 18 18 18 17 17 17 17 17 17 17 17 17 17 17 17 17 17 17 16 16
18 18 18 18 18 18 18 18 18 18 18 18 18 18 18 18 18 18 18 18 18 18 18 18 18 18 18 17 17 17 17 17 17 17 17 17 17 17 17 16 16 16 16
18 18 18 18 18 18 18 18 18 18 18 18 18 18 18 18 18 18 18 18 18 17 17 18 18 18 18 18 18 17 17 17 17 17 17 17 17 17 17 16 16 16 16
18 18 18 18 18 18 18 18 18 18 18 18 18 18 18 18 18 18 18 18 18 17 17 17 17 17 18 18 18 18 17 17 17 17 17 17 17 17 17 17 16 16 16
18 18 18 18 18 18 18 18 18 18 18 18 18 19 19 19 18 18 18 18 18 18 17 17 17 17 17 17 17 17 17 17 17 17 17 17 17 17 17 17 16 16 16
18 18 18 18 18 18 18 18 18 18 18 18 18 19 20 20 19 18 18 18 18 18 18 17 17 17 17 17 17 18 17 17 17 17 17 17 17 17 17 17 16 16 16
19 18 18 18 18 18 18 18 18 18 18 18 18 18 19 20 19 19 18 18 17 17 18 17 17 17 17 17 17 17 17 17 17 17 17 17 17 17 17 17 17 16 16
19 18 18 19 18 18 18 18 18 18 18 18 18 18 18 18 19 19 19 18 18 18 17 17 17 17 17 17 17 17 17 17 17 17 17 17 17 17 17 17 16 16 16
18 18 18 19 18 18 18 18 18 18 18 17 18 18 17 17 18 18 19 18 18 18 18 17 17 17 17 17 16 17 17 17 17 17 17 17 17 17 16 16 16 16 16
18 18 18 19 18 18 18 18 18 18 18 17 17 17 17 18 18 18 18 18 18 18 17 17 17 17 17 17 16 17 17 17 17 17 17 17 16 16 16 16 16 16 16
18 18 18 18 18 18 18 18 18 18 17 17 17 17 17 17 17 17 18 18 18 18 17 17 17 17 17 17 16 17 17 17 17 17 16 16 16 16 16 16 16 16 16
18 18 18 18 18 18 18 18 17 17 17 17 17 17 17 17 17 17 17 17 18 18 18 17 17 17 17 16 16 16 16 16 16 16 16 16 16 16 16 16 16 16 16
18 18 18 18 18 18 18 18 17 17 17 17 17 17 17 17 17 17 16 16 17 18 18 17 17 17 16 16 16 16 16 16 16 16 16 16 16 16 16 16 16 15 15
18 18 18 18 18 18 18 18 17 17 17 17 17 17 17 16 16 16 16 16 16 16 17 17 16 16 16 16 16 15 15 16 16 16 16 16 16 16 15 15 15 15 15
18 18 18 18 18 18 18 18 17 17 17 17 16 16 16 16 16 16 16 16 16 16 16 16 16 15 15 15 15 15 15 15 15 15 15 15 15 15 15 15 15 15 15
18 18 18 18 18 17 17 17 17 17 16 16 16 16 16 16 16 16 15 15 15 15 15 15 15 15 15 14 14 15 15 15 15 15 15 15 15 15 15 15 15 15 15
18 18 18 18 17 17 17 17 17 16 16 16 16 16 16 16 15 15 15 15 15 15 15 15 15 15 14 14 14 14 14 14 14 15 15 14 14 14 14 14 14 14 14
18 18 18 17 17 17 16 16 16 16 16 16 16 15 15 15 15 15 15 14 14 14 14 14 14 14 14 14 14 14 14 14 14 14 14 14 14 14 14 14 14 14 14
17 17 17 17 16 16 16 16 16 16 15 15 15 15 15 15 15 15 14 14 14 14 14 14 14 14 14 14 14 13 14 14 14 14 14 14 14 13 14 14 14 14 14
17 16 16 16 16 16 16 16 16 15 15 15 15 15 15 15 15 14 14 14 14 14 13 13 14 14 13 13 13 13 13 13 13 13 13 13 13 13 13 13 13 13 13
16 16 16 16 16 16 16 16 16 15 15 15 15 14 14 15 14 14 14 14 14 14 13 13 13 13 13 13 13 13 12 12 12 13 13 13 13 13 13 13 13 13 13
16 16 16 15 16 16 16 16 15 15 15 14 14 14 14 14 14 14 14 13 13 13 13 13 12 12 12 12 12 12 12 12 12 13 12 13 13 13 13 13 13 13 13
15 15 15 15 15 15 15 15 15 14 14 14 14 14 14 14 14 14 13 13 13 13 13 13 12 12 12 12 12 12 12 12 13 13 12 12 12 12 13 13 13 12 12
15 15 15 15 15 15 15 15 14 14 14 14 14 14 14 13 13 13 13 13 12 12 12 12 12 12 12 12 12 12 12 12 12 12 12 12 12 12 12 12 12 12 12
Wind_Speed
0 1 1 1 1 0 1 1 1 2 3 4 3 3 4 4 4 4 3 5 5 6 7 7 8 8 10 10 11 12 13 13 14 14 14 14 13 12 12 12 12 12 12
0 0 0 1 1 1 1 1 1 2 2 3 3 3 4 4 4 4 4 4 8 8 7 7 8 8 9 10 11 12 12 13 14 14 14 14 14 13 13 12 12 12 12
0 1 1 1 1 1 1 1 1 1 2 3 3 3 4 4 4 4 4 4 4 8 9 8 8 8 9 9 10 10 11 11 12 13 14 14 14 14 14 14 13 13 13
1 2 1 1 1 1 1 0 1 2 2 2 3 3 3 2 4 4 4 4 4 3 6 8 8 7 8 9 10 10 10 10 11 12 13 14 14 15 15 15 15 14 14
2 2 1 2 2 1 1 1 1 2 2 2 3 2 3 3 3 3 4 4 3 4 4 6 9 9 8 7 8 8 9 10 11 12 12 13 14 15 16 16 16 16 15
2 2 1 1 2 1 1 1 1 2 2 2 3 2 3 3 3 2 3 3 3 4 4 4 5 8 10 8 7 8 9 9 10 11 12 12 13 14 15 15 16 16 16
2 2 2 1 1 1 2 2 2 2 2 2 2 2 2 3 2 2 2 2 2 3 3 4 4 4 5 10 9 8 8 9 10 10 11 12 12 13 14 15 16 16 16
2 2 1 2 1 1 2 2 2 3 2 1 2 3 2 2 2 1 2 2 2 2 3 3 2 3 4 3 4 7 7 8 9 10 10 11 11 12 12 14 15 15 15
2 2 2 2 2 3 2 2 3 3 3 2 2 3 3 2 2 2 2 1 2 2 2 2 3 2 4 3 3 5 6 6 7 9 10 10 11 11 11 12 13 14 15
1 2 2 2 3 3 2 2 2 3 3 3 1 2 3 3 3 2 2 1 2 2 2 3 3 3 3 3 2 2 3 5 6 7 8 9 10 10 11 11 12 13 14
2 2 2 2 2 3 2 2 3 3 3 3 3 2 3 3 5 4 4 3 3 2 2 3 3 3 3 3 3 1 1 4 6 7 7 8 8 9 10 11 12 13 14
2 2 2 2 2 2 2 3 3 3 3 3 3 3 3 3 4 4 5 5 4 3 2 2 3 3 4 4 3 1 2 4 5 6 7 8 8 9 9 9 11 12 13
2 2 2 2 2 2 3 3 3 3 3 3 4 3 3 4 4 4 5 5 5 4 3 3 2 3 4 4 3 0 3 4 4 5 6 7 8 9 9 9 9 10 10
2 2 2 2 3 3 3 3 3 3 3 3 4 4 4 4 4 4 5 5 5 5 4 3 2 2 3 4 2 3 3 3 4 5 6 7 8 8 8 8 8 8 8
2 2 3 3 3 3 3 4 3 3 3 4 4 4 4 4 4 4 4 5 5 6 5 4 4 3 3 3 2 4 5 1 3 4 5 6 7 7 7 7 7 7 6
2 3 3 3 3 3 3 4 4 3 4 4 3 4 4 4 4 4 4 5 5 6 6 5 4 4 4 5 3 4 5 3 5 5 4 4 4 5 5 6 6 5 5
3 4 4 4 4 4 4 4 4 4 4 4 4 4 4 4 4 4 4 4 5 5 6 5 5 4 4 6 6 6 6 5 3 5 4 3 4 4 4 4 5 5 5
4 4 4 4 5 5 5 5 5 4 4 4 4 4 5 4 4 5 4 5 4 4 5 6 6 5 5 6 6 7 6 5 5 3 6 5 4 4 5 4 4 4 4
4 4 4 4 5 5 5 5 5 5 5 5 5 5 5 5 5 4 5 5 4 4 5 6 6 5 5 5 6 6 6 5 6 3 6 7 6 5 5 5 4 4 4
4 4 4 5 5 5 5 5 6 5 6 6 5 5 5 5 5 5 4 5 5 5 5 6 6 5 5 5 5 5 5 4 5 5 3 4 5 8 7 6 4 4 4
4 4 4 5 5 5 5 5 5 6 6 6 6 6 5 4 4 4 5 4 5 5 5 5 6 5 5 5 5 5 6 5 5 4 4 4 3 3 4 5 5 4 4
4 4 4 5 5 5 2 3 6 6 6 6 6 6 6 5 5 5 5 5 6 6 6 6 6 6 6 6 5 6 6 6 5 3 4 5 4 4 3 3 2 4 4
4 4 5 5 5 3 1 2 5 6 7 7 7 6 6 4 4 5 5 6 6 7 7 7 8 8 8 7 7 7 6 7 7 6 5 6 5 5 4 2 4 4 5
4 4 5 5 5 3 1 3 5 6 6 6 6 6 6 5 5 4 5 6 6 6 6 7 7 8 8 7 7 8 8 8 7 5 5 6 6 6 5 4 5 6 6
3 4 4 4 4 4 1 2 5 5 5 6 6 6 6 6 1 3 5 6 7 7 6 6 6 7 8 8 7 7 7 7 7 5 3 5 6 6 5 5 4 8 8
3 3 3 4 4 4 1 2 5 5 5 5 5 5 4 4 2 2 5 6 7 7 7 6 6 8 9 8 9 8 7 7 7 6 4 5 6 5 5 4 4 3 4
Wind_Direction
182 79 23 323 291 243 207 222 229 226 236 242 251 253 255 259 266 265 248 196 215 235 243 246 243 240 234 230 230 229 225 225 224 226 228 230 231 233 234 232 228 226 227
118 5 249 291 302 303 321 285 258 243 251 260 259 261 264 267 262 264 264 221 206 221 235 243 244 243 243 240 237 236 231 229 228 228 227 229 230 231 234 230 229 228 229
172 261 276 271 309 307 284 259 271 263 252 255 260 260 255 260 269 267 268 269 239 207 213 228 237 242 244 246 242 238 232 229 231 231 230 230 231 231 230 229 230 229 229
276 280 299 302 306 274 263 272 282 291 285 283 274 269 266 253 254 259 257 256 266 257 207 208 227 240 243 245 241 237 231 230 234 235 233 232 231 231 230 230 229 231 229
255 269 314 331 284 287 297 292 336 296 292 296 275 252 261 255 254 255 265 260 253 263 262 204 213 225 234 237 235 232 232 235 238 237 237 236 234 233 230 230 231 232 230
247 276 257 289 294 309 314 329 309 294 289 295 292 288 260 255 253 254 263 259 249 255 261 267 238 215 211 218 227 234 239 240 242 238 236 237 235 234 231 231 232 232 232
261 266 288 282 292 316 316 307 298 280 297 308 297 291 240 223 232 252 268 280 274 266 265 265 262 265 221 204 212 229 241 242 243 241 239 238 238 236 232 233 233 233 232
259 250 280 280 277 288 293 297 289 301 310 309 304 301 285 204 195 236 255 260 297 286 275 266 268 254 267 244 196 212 239 244 246 247 244 240 240 238 236 236 235 232 230
247 278 272 275 273 257 252 262 276 286 305 306 307 309 309 315 310 216 246 270 290 293 286 285 264 261 258 259 243 212 232 246 248 250 249 248 244 241 239 236 236 235 233
237 234 246 252 259 265 269 265 275 286 286 293 287 283 298 312 295 290 253 274 274 270 288 289 289 272 264 268 264 283 242 248 252 252 252 252 248 242 240 239 239 238 236
222 230 238 255 259 265 278 294 297 291 289 294 297 289 275 262 268 285 293 297 280 266 275 279 290 288 280 275 273 291 222 255 259 258 259 256 253 247 245 245 245 244 241
222 228 238 259 267 285 284 278 281 278 291 297 292 288 285 288 286 282 285 282 283 281 281 286 285 291 284 276 280 21 218 247 263 263 263 262 260 256 254 255 255 252 246
230 236 258 260 274 276 282 279 267 286 279 275 277 284 288 286 289 286 286 287 286 283 271 263 278 298 291 284 288 274 222 228 253 262 266 264 260 258 257 258 258 259 252
260 265 254 256 265 271 274 271 271 265 263 267 273 279 282 283 287 285 283 287 286 281 275 280 286 292 301 292 329 268 268 202 243 261 268 270 265 260 258 261 260 257 258
248 243 251 256 259 261 267 267 265 274 272 270 275 269 271 282 284 283 280 276 280 285 285 283 282 296 296 299 324 293 292 235 238 258 264 270 269 263 256 253 251 250 258
255 256 253 257 260 259 256 258 262 264 266 269 272 284 285 284 286 282 280 279 277 277 282 295 294 300 319 307 308 296 288 245 227 228 235 253 263 256 254 253 247 242 252
256 250 251 251 255 257 258 256 267 269 264 269 273 274 277 281 281 279 275 272 271 273 275 284 291 302 308 301 308 299 287 279 261 182 200 236 258 261 255 247 244 242 250
255 257 258 255 255 258 259 258 263 268 264 263 270 279 286 282 271 275 277 277 279 276 273 280 285 288 291 290 292 290 292 287 287 189 188 219 242 252 243 241 247 246 248
259 259 261 260 259 259 256 256 257 261 262 263 268 273 281 288 282 278 275 278 280 274 271 272 279 286 287 294 296 291 290 288 286 256 203 207 213 225 233 234 241 244 245
258 261 261 262 262 263 265 265 263 264 267 269 271 273 275 279 282 283 277 276 276 275 269 270 278 285 289 299 293 293 291 284 281 286 289 266 217 211 217 215 214 229 240
262 265 267 268 267 264 271 282 278 271 269 270 270 270 270 275 295 286 290 290 283 277 279 282 285 289 295 303 298 301 299 296 284 288 293 286 266 261 237 209 202 205 221
269 269 268 268 268 271 341 317 288 277 272 270 270 269 265 251 237 231 259 274 283 279 285 288 289 295 296 296 301 298 301 298 297 305 299 293 285 283 281 276 167 181 217
275 269 270 270 270 278 274 269 276 276 271 273 273 270 271 270 257 263 243 234 249 258 263 272 283 289 295 300 298 289 288 291 294 297 294 293 287 281 279 262 165 192 216
270 271 272 274 274 278 250 271 277 264 270 267 266 264 266 274 276 283 273 268 267 262 255 256 271 279 286 296 289 281 280 278 277 274 275 284 290 287 282 268 184 192 211
264 267 271 272 274 281 271 265 277 266 266 266 264 263 264 263 293 287 268 273 278 278 254 237 255 269 280 279 282 284 281 280 282 283 278 283 292 295 287 276 229 195 208
264 270 276 277 279 284 256 250 275 269 270 267 258 256 249 267 284 263 263 272 276 284 292 285 263 256 260 254 238 251 271 277 282 283 288 280 283 292 290 283 284 268 239
Height
1535 1536 1535 1535 1536 1535 1535 1535 1535 1534 1534 1535 1535 1535 1535 1535 1534 1534 1533 1532 1532 1532 1532 1532 1532 1532 1532 1533 1533 1533 1534 1534 1535 1535 1536 1537 1538 1538 1539 1539 1540 1541 1541
1535 1535 1535 1535 1535 1535 1535 1534 1534 1534 1534 1534 1534 1533 1533 1533 1533 1532 1532 1531 1530 1530 1530 1530 1530 1530 1530 1530 1530 1531 1531 1531 1532 1532 1533 1534 1535 1535 1536 1537 1537 1538 1538
1535 1535 1535 1535 1535 1535 1534 1533 1533 1533 1533 1533 1532 1532 1532 1531 1531 1530 1530 1530 1529 1528 1528 1528 1527 1527 1527 1528 1528 1528 1528 1528 1529 1530 1531 1531 1531 1532 1533 1534 1534 1535 1535
1535 1535 1535 1535 1534 1534 1534 1533 1533 1533 1532 1532 1531 1531 1531 1530 1529 1529 1529 1528 1528 1528 1527 1526 1525 1525 1525 1525 1524 1525 1525 1526 1527 1527 1527 1528 1528 1529 1529 1530 1531 1531 1532
1534 1535 1535 1534 1534 1534 1534 1533 1532 1532 1531 1530 1530 1529 1529 1529 1528 1528 1527 1527 1526 1525 1525 1524 1524 1523 1523 1523 1522 1522 1523 1523 1524 1524 1524 1525 1525 1526 1526 1526 1527 1528 1529
1534 1534 1534 1534 1534 1534 1533 1532 1531 1531 1530 1530 1530 1529 1528 1528 1527 1527 1526 1526 1525 1524 1524 1523 1522 1522 1521 1521 1521 1520 1520 1521 1521 1521 1521 1522 1522 1522 1522 1523 1524 1524 1525
1534 1534 1534 1533 1533 1533 1532 1532 1531 1531 1530 1529 1529 1528 1527 1526 1526 1525 1525 1524 1524 1523 1522 1521 1521 1520 1520 1519 1518 1518 1518 1518 1518 1518 1518 1519 1519 1519 1519 1520 1520 1521 1522
1533 1534 1532 1533 1532 1532 1531 1530 1530 1530 1530 1528 1528 1527 1526 1527 1525 1524 1524 1523 1522 1522 1521 1520 1519 1518 1518 1518 1517 1516 1516 1515 1515 1515 1515 1515 1515 1516 1516 1516 1517 1517 1518
1532 1531 1531 1531 1531 1531 1530 1529 1529 1529 1529 1528 1527 1527 1526 1524 1524 1524 1522 1522 1520 1520 1519 1519 1518 1517 1516 1516 1515 1514 1513 1513 1512 1512 1512 1512 1512 1512 1512 1512 1513 1513 1514
1530 1530 1530 1529 1529 1529 1529 1529 1528 1528 1527 1527 1526 1525 1525 1524 1524 1522 1522 1521 1519 1518 1518 1517 1517 1516 1514 1514 1512 1511 1511 1510 1510 1509 1509 1509 1509 1509 1509 1509 1509 1509 1509
1529 1529 1528 1528 1527 1527 1527 1527 1526 1526 1526 1525 1525 1524 1523 1523 1522 1521 1520 1520 1519 1517 1516 1515 1514 1514 1513 1512 1510 1509 1508 1507 1507 1506 1506 1506 1506 1506 1505 1505 1505 1505 1505
1528 1527 1527 1526 1526 1526 1525 1525 1524 1524 1524 1523 1522 1522 1522 1522 1521 1520 1518 1517 1516 1516 1514 1513 1513 1512 1511 1510 1509 1507 1506 1505 1504 1503 1503 1503 1502 1502 1502 1502 1501 1501 1501
1527 1526 1526 1525 1525 1524 1524 1523 1523 1522 1522 1521 1520 1520 1520 1519 1518 1518 1517 1515 1514 1513 1512 1512 1510 1509 1509 1508 1506 1504 1503 1502 1501 1501 1500 1500 1499 1499 1498 1498 1497 1497 1497
1524 1524 1524 1523 1523 1523 1523 1522 1521 1520 1519 1519 1518 1517 1517 1516 1516 1515 1514 1513 1512 1511 1510 1509 1509 1507 1506 1505 1503 1502 1501 1499 1498 1497 1497 1496 1496 1495 1495 1494 1493 1493 1493
1522 1522 1522 1521 1521 1521 1520 1519 1519 1518 1517 1517 1516 1515 1514 1514 1513 1512 1511 1511 1511 1508 1507 1507 1506 1505 1503 1502 1500 1499 1498 1496 1495 1494 1493 1493 1492 1491 1491 1490 1490 1490 1490
1519 1519 1519 1519 1519 1518 1518 1517 1517 1516 1515 1514 1513 1512 1511 1511 1510 1509 1509 1508 1507 1506 1504 1504 1502 1502 1500 1500 1498 1496 1494 1493 1492 1491 1490 1489 1488 1487 1487 1486 1486 1486 1486
1517 1517 1517 1516 1516 1516 1515 1514 1514 1513 1513 1512 1511 1510 1509 1508 1507 1507 1506 1505 1504 1503 1502 1501 1500 1499 1497 1495 1494 1493 1492 1490 1489 1488 1487 1486 1484 1484 1483 1483 1483 1483 1483
1516 1515 1514 1514 1514 1513 1512 1511 1511 1511 1510 1509 1509 1508 1507 1506 1504 1504 1503 1502 1501 1500 1499 1497 1496 1496 1494 1492 1491 1489 1489 1488 1487 1485 1483 1482 1481 1480 1480 1480 1479 1479 1479
1513 1513 1512 1512 1511 1510 1509 1509 1508 1508 1507 1507 1506 1505 1504 1503 1502 1501 1500 1499 1498 1497 1496 1495 1494 1492 1491 1490 1488 1487 1486 1484 1484 1483 1481 1480 1478 1477 1477 1476 1476 1476 1476
1511 1510 1510 1509 1508 1508 1507 1506 1506 1505 1504 1504 1503 1502 1501 1500 1499 1498 1497 1496 1495 1494 1493 1492 1491 1490 1489 1487 1486 1485 1483 1482 1481 1480 1478 1477 1476 1475 1474 1473 1473 1472 1472
1508 1507 1507 1506 1506 1505 1505 1504 1503 1503 1502 1501 1500 1499 1498 1497 1496 1496 1495 1494 1493 1492 1491 1490 1489 1487 1486 1485 1484 1482 1481 1479 1478 1477 1476 1475 1474 1472 1471 1470 1469 1469 1468
1505 1504 1504 1503 1502 1502 1501 1500 1500 1499 1499 1498 1497 1496 1495 1494 1493 1492 1491 1490 1490 1489 1488 1487 1486 1485 1483 1482 1481 1480 1479 1477 1476 1475 1473 1472 1471 1470 1469 1468 1466 1465 1465
1502 1501 1500 1500 1499 1498 1497 1496 1496 1496 1495 1494 1494 1493 1493 1492 1490 1489 1488 1487 1486 1485 1485 1484 1483 1482 1481 1479 1477 1476 1475 1474 1472 1471 1470 1469 1468 1467 1466 1464 1463 1462 1461
1498 1498 1497 1496 1495 1494 1493 1493 1492 1492 1491 1491 1490 1489 1489 1488 1487 1485 1485 1484 1483 1482 1481 1480 1479 1478 1477 1475 1474 1473 1472 1470 1469 1468 1468 1466 1465 1464 1463 1461 1460 1459 1458
1495 1494 1493 1493 1492 1490 1490 1489 1488 1488 1487 1487 1486 1486 1485 1484 1483 1482 1481 1480 1479 1478 1477 1476 1475 1473 1472 1471 1470 1470 1469 1468 1466 1466 1465 1463 1461 1461 1459 1458 1457 1456 1454
1492 1491 1490 1489 1488 1487 1486 1486 1485 1485 1484 1484 1483 1482 1481 1480 1479 1478 1477 1477 1476 1475 1474 1473 1471 1469 1468 1467 1466 1466 1465 1464 1463 1462 1461 1460 1459 1458 1456 1455 1454 1453 1452